Location: �perlecques
(50.8057°N, 2.1521°E)
Time: 09:48:27
(UTC+00:00)

N. Korean satellite - Pass Details

Date: 04 December 2022
Orbit: 407 x 444 km, 97.3° (Epoch: 28 January)

Event Time Altitude Azimuth Distance (km) Brightness Sun altitude
Rises 06:34:49 0° 358° (N) 2,523 9.9 -9.1°
Reaches altitude 10° 06:37:33 10° 334° (NNW) 1,635 8.8 -8.7°
Maximum altitude 06:39:35 15° 299° (WNW) 1,351 8.1 -8.4°
Drops below altitude 10° 06:41:37 10° 263° (W) 1,616 8.7 -8.1°
Sets 06:44:18 0° 239° (WSW) 2,474 9.8 -7.8°
